[Date Prev][Date Next][Thread Prev][Thread Next] - [Date Index][Thread Index][Author Index]

2 Line ISS Keps 10-23



ISS 
1 25544U 98067A   04297.31435128  .00022117  00000-0  18857-3 0  9747
2 25544  51.6365  31.9882 0008510 263.3819 187.9531 15.69422569338440
----
Via the sarex mailing list at AMSAT.ORG courtesy of AMSAT-NA.
To unsubscribe, send "unsubscribe sarex" to Majordomo@amsat.org



AMSAT Top AMSAT Home